Time,TemperatureF,DewpointF,PressureIn,WindDirection,WindDirectionDegrees,WindSpeedMPH,WindSpeedGustMPH,Humidity,HourlyPrecipIn,Conditions,Clouds,dailyrainin,SoftwareType,DateUTC
2013-01-14 00:00:00,41.3,41.3,29.59,SSW,196,0.0,4.0,100,0.00,,,-99.99,Weather View 32 v60,2013-01-14 05:00:00,
2013-01-14 00:10:00,41.3,41.3,29.60,SSW,197,0.0,4.0,100,0.00,,,-99.99,Weather View 32 v60,2013-01-14 05:10:00,
2013-01-14 00:15:00,41.1,41.1,29.60,SSW,196,0.0,4.0,100,0.00,,,-99.99,Weather View 32 v60,2013-01-14 05:15:00,
2013-01-14 00:25:00,41.0,41.0,29.60,SSW,196,0.0,4.0,100,0.00,,,-99.99,Weather View 32 v60,2013-01-14 05:25:00,
2013-01-14 00:30:00,40.9,40.9,29.60,SSW,196,0.0,4.0,100,0.00,,,-99.99,Weather View 32 v60,2013-01-14 05:30:00,
2013-01-14 00:40:00,41.2,41.2,29.61,SSW,197,0.0,3.0,100,0.00,,,-99.99,Weather View 32 v60,2013-01-14 05:40:00,
2013-01-14 00:45:00,41.1,41.1,29.60,SSW,196,0.0,3.0,100,0.00,,,-99.99,Weather View 32 v60,2013-01-14 05:45:00,
2013-01-14 00:50:00,41.1,41.1,29.61,SSW,197,0.0,3.0,100,0.00,,,-99.99,Weather View 32 v60,2013-01-14 05:50:00,
2013-01-14 01:00:00,40.8,40.8,29.60,SSW,197,0.0,1.0,100,0.00,,,-99.99,Weather View 32 v60,2013-01-14 06:00:00,
2013-01-14 01:05:00,40.8,40.8,29.60,SSW,197,0.0,1.0,100,0.00,,,-99.99,Weather View 32 v60,2013-01-14 06:05:00,
2013-01-14 01:10:00,41.0,41.0,29.60,SSW,197,0.0,1.0,100,0.00,,,-99.99,Weather View 32 v60,2013-01-14 06:10:00,
2013-01-14 01:15:00,41.2,41.2,29.60,SSW,197,0.0,1.0,100,0.00,,,-99.99,Weather View 32 v60,2013-01-14 06:15:00,
2013-01-14 01:20:00,41.2,41.2,29.60,SSW,196,0.0,1.0,100,0.00,,,-99.99,Weather View 32 v60,2013-01-14 06:20:00,
2013-01-14 01:25:00,40.8,40.8,29.60,SSW,197,0.0,1.0,100,0.00,,,-99.99,Weather View 32 v60,2013-01-14 06:25:00,
2013-01-14 01:35:00,40.4,40.4,29.60,SSW,197,0.0,1.0,100,0.00,,,-99.99,Weather View 32 v60,2013-01-14 06:35:00,
2013-01-14 01:40:00,40.3,40.3,29.60,SSW,197,0.0,1.0,100,0.00,,,-99.99,Weather View 32 v60,2013-01-14 06:40:00,
2013-01-14 01:45:00,40.3,40.3,29.60,SSW,196,0.0,0.0,100,0.00,,,-99.99,Weather View 32 v60,2013-01-14 06:45:00,
2013-01-14 01:50:00,40.2,40.2,29.60,SSW,196,0.0,0.0,100,0.00,,,-99.99,Weather View 32 v60,2013-01-14 06:50:00,
2013-01-14 01:55:00,39.9,39.9,29.61,SSW,196,2.0,4.0,100,0.00,,,-99.99,Weather View 32 v60,2013-01-14 06:55:00,
2013-01-14 02:00:00,39.6,39.6,29.61,SSW,197,1.0,4.0,100,0.00,,,-99.99,Weather View 32 v60,2013-01-14 07:00:00,
2013-01-14 02:05:00,39.5,39.5,29.61,SSW,197,1.0,4.0,100,0.00,,,-99.99,Weather View 32 v60,2013-01-14 07:05:00,
2013-01-14 02:10:00,39.5,39.5,29.60,SSW,197,1.0,4.0,100,0.00,,,-99.99,Weather View 32 v60,2013-01-14 07:10:00,
2013-01-14 02:15:00,39.4,39.4,29.60,SSW,197,0.0,4.0,100,0.00,,,-99.99,Weather View 32 v60,2013-01-14 07:15:00,
2013-01-14 02:20:00,39.4,39.4,29.60,SSW,197,0.0,4.0,100,0.00,,,-99.99,Weather View 32 v60,2013-01-14 07:20:00,
2013-01-14 02:25:00,39.3,39.3,29.60,SSW,197,0.0,4.0,100,0.00,,,-99.99,Weather View 32 v60,2013-01-14 07:25:00,
2013-01-14 02:35:00,39.5,39.5,29.60,SSW,197,0.0,4.0,100,0.00,,,-99.99,Weather View 32 v60,2013-01-14 07:35:00,
2013-01-14 02:40:00,39.5,39.5,29.60,SSW,197,0.0,4.0,100,0.00,,,-99.99,Weather View 32 v60,2013-01-14 07:40:00,
2013-01-14 02:45:00,39.6,39.6,29.59,SSW,197,0.0,4.0,100,0.00,,,-99.99,Weather View 32 v60,2013-01-14 07:45:00,
2013-01-14 02:50:00,39.7,39.7,29.59,SSW,197,0.0,4.0,100,0.00,,,-99.99,Weather View 32 v60,2013-01-14 07:50:00,
2013-01-14 02:55:00,39.7,39.7,29.58,SSW,197,0.0,3.0,100,0.00,,,-99.99,Weather View 32 v60,2013-01-14 07:55:00,
2013-01-14 03:00:00,39.3,39.3,29.58,SSW,197,0.0,3.0,100,0.00,,,-99.99,Weather View 32 v60,2013-01-14 08:00:00,
2013-01-14 03:05:00,39.4,39.4,29.58,SSW,197,0.0,3.0,100,0.00,,,-99.99,Weather View 32 v60,2013-01-14 08:05:00,
2013-01-14 03:15:00,39.2,39.2,29.56,SSW,197,0.0,0.0,100,0.00,,,-99.99,Weather View 32 v60,2013-01-14 08:15:00,
2013-01-14 03:20:00,39.1,39.1,29.56,SSW,197,0.0,0.0,100,0.00,,,-99.99,Weather View 32 v60,2013-01-14 08:20:00,
2013-01-14 03:25:00,38.8,38.8,29.56,SSW,197,0.0,0.0,100,0.00,,,-99.99,Weather View 32 v60,2013-01-14 08:25:00,
2013-01-14 03:30:00,38.7,38.7,29.56,SSW,197,0.0,0.0,100,0.00,,,-99.99,Weather View 32 v60,2013-01-14 08:30:00,
2013-01-14 03:35:00,38.7,38.7,29.56,SSW,197,0.0,0.0,100,0.00,,,-99.99,Weather View 32 v60,2013-01-14 08:35:00,
2013-01-14 03:45:00,38.9,38.9,29.57,SSW,197,0.0,0.0,100,0.00,,,-99.99,Weather View 32 v60,2013-01-14 08:45:00,
2013-01-14 03:55:00,39.2,39.2,29.56,SSW,197,0.0,2.0,100,0.00,,,-99.99,Weather View 32 v60,2013-01-14 08:55:00,
2013-01-14 04:00:00,39.1,39.1,29.55,SSW,197,0.0,2.0,100,0.00,,,-99.99,Weather View 32 v60,2013-01-14 09:00:00,
2013-01-14 04:05:00,38.8,38.8,29.56,SSW,197,0.0,2.0,100,0.00,,,-99.99,Weather View 32 v60,2013-01-14 09:05:00,
2013-01-14 04:10:00,38.7,38.7,29.55,SSW,197,0.0,2.0,100,0.00,,,-99.99,Weather View 32 v60,2013-01-14 09:10:00,
2013-01-14 04:15:00,38.8,38.8,29.54,SSW,197,0.0,2.0,100,0.00,,,-99.99,Weather View 32 v60,2013-01-14 09:15:00,
2013-01-14 04:20:00,38.7,38.7,29.54,SSW,197,0.0,2.0,100,0.00,,,-99.99,Weather View 32 v60,2013-01-14 09:20:00,
2013-01-14 04:25:00,38.3,38.3,29.54,SSW,197,0.0,2.0,100,0.00,,,-99.99,Weather View 32 v60,2013-01-14 09:25:00,
2013-01-14 04:35:00,37.8,37.8,29.54,SSW,197,0.0,2.0,100,0.00,,,-99.99,Weather View 32 v60,2013-01-14 09:35:00,
2013-01-14 04:40:00,37.6,37.6,29.55,SSW,197,0.0,2.0,100,0.00,,,-99.99,Weather View 32 v60,2013-01-14 09:40:00,
2013-01-14 04:45:00,37.8,37.8,29.54,SSW,197,0.0,2.0,100,0.00,,,-99.99,Weather View 32 v60,2013-01-14 09:45:00,
2013-01-14 04:50:00,38.2,38.2,29.54,SSW,197,0.0,2.0,100,0.00,,,-99.99,Weather View 32 v60,2013-01-14 09:50:00,
2013-01-14 04:55:00,38.4,38.4,29.53,SSW,197,0.0,2.0,100,0.00,,,-99.99,Weather View 32 v60,2013-01-14 09:55:00,
2013-01-14 05:00:00,38.6,38.6,29.52,SSW,197,0.0,1.0,100,0.00,,,-99.99,Weather View 32 v60,2013-01-14 10:00:00,
2013-01-14 05:05:00,38.4,38.4,29.51,SSW,197,0.0,1.0,100,0.00,,,-99.99,Weather View 32 v60,2013-01-14 10:05:00,
2013-01-14 05:10:00,38.1,38.1,29.50,SSW,197,0.0,0.0,100,0.00,,,-99.99,Weather View 32 v60,2013-01-14 10:10:00,
2013-01-14 05:15:00,37.9,37.9,29.49,SSW,197,0.0,1.0,100,0.00,,,-99.99,Weather View 32 v60,2013-01-14 10:15:00,
2013-01-14 05:20:00,38.1,38.1,29.50,SSW,197,0.0,1.0,100,0.00,,,-99.99,Weather View 32 v60,2013-01-14 10:20:00,
2013-01-14 05:25:00,38.7,38.7,29.50,SSW,197,0.0,1.0,100,0.00,,,-99.99,Weather View 32 v60,2013-01-14 10:25:00,
2013-01-14 05:35:00,39.7,39.7,29.48,SSW,197,0.0,3.0,100,0.00,,,-99.99,Weather View 32 v60,2013-01-14 10:35:00,
2013-01-14 05:40:00,39.8,39.8,29.52,SSW,197,0.0,3.0,100,0.00,,,-99.99,Weather View 32 v60,2013-01-14 10:40:00,
2013-01-14 05:45:00,40.1,40.1,29.52,SW,226,2.0,5.0,100,0.00,,,-99.99,Weather View 32 v60,2013-01-14 10:45:00,
2013-01-14 05:50:00,39.2,39.2,29.53,SW,226,0.0,5.0,100,0.00,,,-99.99,Weather View 32 v60,2013-01-14 10:50:00,
2013-01-14 05:55:00,38.7,38.7,29.52,SW,226,0.0,5.0,100,0.00,,,-99.99,Weather View 32 v60,2013-01-14 10:55:00,
2013-01-14 06:00:00,38.7,38.7,29.52,SW,226,2.0,5.0,100,0.00,,,-99.99,Weather View 32 v60,2013-01-14 11:00:00,
2013-01-14 06:05:00,39.9,39.9,29.51,SW,223,2.0,6.0,100,0.00,,,-99.99,Weather View 32 v60,2013-01-14 11:05:00,
2013-01-14 06:10:00,39.8,39.8,29.50,SW,222,0.0,6.0,100,0.00,,,-99.99,Weather View 32 v60,2013-01-14 11:10:00,
2013-01-14 06:15:00,39.7,39.7,29.52,SW,222,0.0,6.0,100,0.00,,,-99.99,Weather View 32 v60,2013-01-14 11:15:00,
2013-01-14 06:20:00,39.7,39.7,29.53,SW,222,0.0,6.0,100,0.00,,,-99.99,Weather View 32 v60,2013-01-14 11:20:00,
2013-01-14 06:25:00,39.7,39.7,29.53,SW,222,0.0,6.0,100,0.00,,,-99.99,Weather View 32 v60,2013-01-14 11:25:00,
2013-01-14 06:30:00,39.1,39.1,29.53,SW,222,0.0,6.0,100,0.00,,,-99.99,Weather View 32 v60,2013-01-14 11:30:00,
2013-01-14 06:35:00,38.9,38.9,29.52,SW,222,0.0,6.0,100,0.00,,,-99.99,Weather View 32 v60,2013-01-14 11:35:00,
2013-01-14 06:40:00,38.9,38.9,29.51,SW,222,0.0,6.0,100,0.00,,,-99.99,Weather View 32 v60,2013-01-14 11:40:00,
2013-01-14 06:45:00,38.6,38.6,29.54,West,263,3.0,6.0,100,0.00,,,-99.99,Weather View 32 v60,2013-01-14 11:45:00,
2013-01-14 06:50:00,38.5,38.5,29.54,West,263,0.0,6.0,100,0.00,,,-99.99,Weather View 32 v60,2013-01-14 11:50:00,
2013-01-14 06:55:00,38.9,38.9,29.53,West,263,0.0,6.0,100,0.00,,,-99.99,Weather View 32 v60,2013-01-14 11:55:00,
2013-01-14 07:00:00,38.9,38.9,29.53,West,263,0.0,6.0,100,0.00,,,-99.99,Weather View 32 v60,2013-01-14 12:00:00,
2013-01-14 07:05:00,39.2,39.2,29.53,West,263,0.0,4.0,100,0.01,,,-99.99,Weather View 32 v60,2013-01-14 12:05:00,
2013-01-14 07:10:00,39.1,39.1,29.53,West,263,0.0,4.0,100,0.01,,,-99.99,Weather View 32 v60,2013-01-14 12:10:00,
2013-01-14 07:15:00,39.0,39.0,29.53,West,263,0.0,4.0,100,0.01,,,-99.99,Weather View 32 v60,2013-01-14 12:15:00,
2013-01-14 07:25:00,39.1,39.1,29.52,West,263,0.0,4.0,100,0.01,,,-99.99,Weather View 32 v60,2013-01-14 12:25:00,
2013-01-14 07:35:00,39.7,39.7,29.52,West,263,0.0,4.0,100,0.01,,,-99.99,Weather View 32 v60,2013-01-14 12:35:00,
2013-01-14 07:40:00,40.1,40.1,29.52,West,263,0.0,4.0,100,0.01,,,-99.99,Weather View 32 v60,2013-01-14 12:40:00,
2013-01-14 07:45:00,40.4,40.4,29.53,WSW,256,2.0,4.0,100,0.01,,,-99.99,Weather View 32 v60,2013-01-14 12:45:00,
2013-01-14 07:55:00,41.4,41.4,29.52,SW,224,0.0,5.0,100,0.01,,,-99.99,Weather View 32 v60,2013-01-14 12:55:00,
2013-01-14 08:00:00,41.6,41.6,29.52,SW,214,2.0,7.0,100,0.01,,,-99.99,Weather View 32 v60,2013-01-14 13:00:00,
2013-01-14 08:05:00,41.8,41.8,29.51,SSW,201,0.0,7.0,100,0.00,,,-99.99,Weather View 32 v60,2013-01-14 13:05:00,
2013-01-14 08:10:00,41.9,41.9,29.52,SSW,206,2.0,7.0,100,0.00,,,-99.99,Weather View 32 v60,2013-01-14 13:10:00,
2013-01-14 08:15:00,42.1,42.1,29.51,SSW,205,0.0,7.0,100,0.00,,,-99.99,Weather View 32 v60,2013-01-14 13:15:00,
2013-01-14 08:20:00,42.3,42.3,29.53,SSW,203,2.0,7.0,100,0.00,,,-99.99,Weather View 32 v60,2013-01-14 13:20:00,
2013-01-14 08:25:00,42.5,42.5,29.53,SSW,203,0.0,7.0,100,0.00,,,-99.99,Weather View 32 v60,2013-01-14 13:25:00,
2013-01-14 08:30:00,42.6,42.6,29.53,SSW,204,0.0,7.0,100,0.00,,,-99.99,Weather View 32 v60,2013-01-14 13:30:00,
2013-01-14 08:35:00,42.7,42.7,29.53,SSW,209,3.0,7.0,100,0.00,,,-99.99,Weather View 32 v60,2013-01-14 13:35:00,
2013-01-14 08:40:00,42.8,42.8,29.54,SSW,209,2.0,7.0,100,0.00,,,-99.99,Weather View 32 v60,2013-01-14 13:40:00,
2013-01-14 08:45:00,42.7,42.7,29.53,SSW,213,0.0,7.0,100,0.00,,,-99.99,Weather View 32 v60,2013-01-14 13:45:00,
2013-01-14 08:50:00,42.7,42.7,29.52,SSW,213,0.0,7.0,100,0.00,,,-99.99,Weather View 32 v60,2013-01-14 13:50:00,
2013-01-14 08:55:00,42.5,42.5,29.53,SSW,213,3.0,7.0,100,0.00,,,-99.99,Weather View 32 v60,2013-01-14 13:55:00,
2013-01-14 09:00:00,42.0,42.0,29.54,North,0,2.0,7.0,100,0.00,,,-99.99,Weather View 32 v60,2013-01-14 14:00:00,
2013-01-14 09:10:00,41.6,41.6,29.55,North,0,2.0,6.0,100,0.00,,,-99.99,Weather View 32 v60,2013-01-14 14:10:00,
2013-01-14 09:15:00,41.8,41.8,29.55,North,0,2.0,6.0,100,0.00,,,-99.99,Weather View 32 v60,2013-01-14 14:15:00,
2013-01-14 09:20:00,41.8,41.8,29.55,North,0,3.0,6.0,100,0.00,,,-99.99,Weather View 32 v60,2013-01-14 14:20:00,
2013-01-14 09:25:00,41.9,41.9,29.55,North,0,1.0,6.0,100,0.00,,,-99.99,Weather View 32 v60,2013-01-14 14:25:00,
2013-01-14 09:30:00,42.2,42.2,29.55,North,0,0.0,6.0,100,0.00,,,-99.99,Weather View 32 v60,2013-01-14 14:30:00,
2013-01-14 09:40:00,42.7,42.7,29.55,North,0,3.0,6.0,100,0.00,,,-99.99,Weather View 32 v60,2013-01-14 14:40:00,
2013-01-14 09:45:00,42.6,42.6,29.56,North,0,2.0,6.0,100,0.00,,,-99.99,Weather View 32 v60,2013-01-14 14:45:00,
2013-01-14 09:50:00,42.6,42.6,29.56,NNW,327,0.0,6.0,100,0.00,,,-99.99,Weather View 32 v60,2013-01-14 14:50:00,
2013-01-14 09:55:00,42.8,42.8,29.57,NNW,327,2.0,6.0,100,0.00,,,-99.99,Weather View 32 v60,2013-01-14 14:55:00,
2013-01-14 10:00:00,42.9,42.9,29.57,NNW,327,0.0,5.0,100,0.00,,,-99.99,Weather View 32 v60,2013-01-14 15:00:00,
2013-01-14 10:05:00,43.0,43.0,29.57,NW,323,1.0,5.0,100,0.00,,,-99.99,Weather View 32 v60,2013-01-14 15:05:00,
2013-01-14 10:10:00,43.3,43.3,29.57,NW,323,0.0,5.0,100,0.00,,,-99.99,Weather View 32 v60,2013-01-14 15:10:00,
2013-01-14 10:15:00,43.3,43.3,29.58,NW,323,2.0,4.0,100,0.00,,,-99.99,Weather View 32 v60,2013-01-14 15:15:00,
2013-01-14 10:20:00,43.4,43.4,29.57,NW,323,0.0,4.0,100,0.00,,,-99.99,Weather View 32 v60,2013-01-14 15:20:00,
2013-01-14 10:25:00,43.7,43.7,29.57,WNW,289,2.0,4.0,100,0.00,,,-99.99,Weather View 32 v60,2013-01-14 15:25:00,
2013-01-14 10:30:00,43.9,43.9,29.56,WNW,286,2.0,4.0,100,0.00,,,-99.99,Weather View 32 v60,2013-01-14 15:30:00,
2013-01-14 10:40:00,43.7,43.7,29.56,WNW,286,2.0,4.0,100,0.00,,,-99.99,Weather View 32 v60,2013-01-14 15:40:00,
2013-01-14 10:45:00,43.9,43.9,29.56,WNW,286,0.0,4.0,100,0.00,,,-99.99,Weather View 32 v60,2013-01-14 15:45:00,
2013-01-14 10:50:00,45.1,45.1,29.56,WNW,286,0.0,4.0,100,0.00,,,-99.99,Weather View 32 v60,2013-01-14 15:50:00,
2013-01-14 10:55:00,46.1,46.1,29.55,WNW,286,0.0,4.0,100,0.00,,,-99.99,Weather View 32 v60,2013-01-14 15:55:00,
2013-01-14 11:00:00,46.4,46.4,29.56,WNW,286,0.0,4.0,100,0.00,,,-99.99,Weather View 32 v60,2013-01-14 16:00:00,
2013-01-14 11:05:00,46.4,46.4,29.56,WNW,286,0.0,4.0,100,0.00,,,-99.99,Weather View 32 v60,2013-01-14 16:05:00,
2013-01-14 11:10:00,46.5,46.5,29.55,WNW,286,3.0,4.0,100,0.00,,,-99.99,Weather View 32 v60,2013-01-14 16:10:00,
2013-01-14 11:15:00,46.5,46.5,29.56,WNW,292,0.0,4.0,100,0.00,,,-99.99,Weather View 32 v60,2013-01-14 16:15:00,
2013-01-14 11:20:00,46.8,46.8,29.56,WNW,292,4.0,4.0,100,0.00,,,-99.99,Weather View 32 v60,2013-01-14 16:20:00,
2013-01-14 11:25:00,47.0,47.0,29.56,WNW,292,1.0,4.0,100,0.00,,,-99.99,Weather View 32 v60,2013-01-14 16:25:00,
2013-01-14 11:30:00,47.4,47.4,29.55,WNW,292,0.0,5.0,100,0.00,,,-99.99,Weather View 32 v60,2013-01-14 16:30:00,
2013-01-14 11:35:00,48.1,48.1,29.56,WNW,292,3.0,5.0,100,0.00,,,-99.99,Weather View 32 v60,2013-01-14 16:35:00,
2013-01-14 11:40:00,48.5,48.5,29.56,WNW,292,3.0,5.0,100,0.00,,,-99.99,Weather View 32 v60,2013-01-14 16:40:00,
2013-01-14 11:45:00,48.9,48.9,29.56,WNW,292,4.0,6.0,100,0.00,,,-99.99,Weather View 32 v60,2013-01-14 16:45:00,
2013-01-14 11:50:00,49.4,49.4,29.55,WNW,292,0.0,6.0,100,0.00,,,-99.99,Weather View 32 v60,2013-01-14 16:50:00,
2013-01-14 11:55:00,49.9,49.9,29.55,WNW,291,3.0,6.0,100,0.00,,,-99.99,Weather View 32 v60,2013-01-14 16:55:00,
2013-01-14 12:00:00,50.3,50.3,29.55,WNW,289,3.0,6.0,100,0.00,,,-99.99,Weather View 32 v60,2013-01-14 17:00:00,
2013-01-14 12:05:00,50.4,50.4,29.56,West,279,5.0,6.0,100,0.00,,,-99.99,Weather View 32 v60,2013-01-14 17:05:00,
2013-01-14 12:10:00,50.7,50.7,29.56,West,278,3.0,6.0,100,0.00,,,-99.99,Weather View 32 v60,2013-01-14 17:10:00,
2013-01-14 12:15:00,50.8,50.8,29.56,West,279,4.0,6.0,100,0.00,,,-99.99,Weather View 32 v60,2013-01-14 17:15:00,
2013-01-14 12:20:00,51.1,51.1,29.56,West,279,2.0,6.0,100,0.00,,,-99.99,Weather View 32 v60,2013-01-14 17:20:00,
2013-01-14 12:25:00,51.7,51.7,29.56,West,279,0.0,6.0,100,0.00,,,-99.99,Weather View 32 v60,2013-01-14 17:25:00,
2013-01-14 12:30:00,52.5,52.5,29.57,West,277,4.0,6.0,100,0.00,,,-99.99,Weather View 32 v60,2013-01-14 17:30:00,
2013-01-14 12:40:00,53.4,53.4,29.57,West,277,0.0,6.0,100,0.00,,,-99.99,Weather View 32 v60,2013-01-14 17:40:00,
2013-01-14 12:45:00,54.3,54.3,29.57,West,277,0.0,6.0,100,0.00,,,-99.99,Weather View 32 v60,2013-01-14 17:45:00,
2013-01-14 12:50:00,54.7,54.7,29.58,NW,311,5.0,6.0,100,0.00,,,-99.99,Weather View 32 v60,2013-01-14 17:50:00,
2013-01-14 12:55:00,54.2,53.9,29.58,NW,310,5.0,9.0,99,0.00,,,-99.99,Weather View 32 v60,2013-01-14 17:55:00,
2013-01-14 13:00:00,53.9,53.9,29.58,NNW,335,2.0,9.0,100,0.00,,,-99.99,Weather View 32 v60,2013-01-14 18:00:00,
2013-01-14 13:05:00,54.2,53.9,29.58,NNW,346,1.0,9.0,99,0.00,,,-99.99,Weather View 32 v60,2013-01-14 18:05:00,
2013-01-14 13:10:00,54.4,53.3,29.59,NNW,335,3.0,9.0,96,0.00,,,-99.99,Weather View 32 v60,2013-01-14 18:10:00,
2013-01-14 13:15:00,54.6,53.2,29.59,NW,310,3.0,9.0,95,0.00,,,-99.99,Weather View 32 v60,2013-01-14 18:15:00,
2013-01-14 13:20:00,55.1,53.4,29.59,NW,310,3.0,9.0,94,0.00,,,-99.99,Weather View 32 v60,2013-01-14 18:20:00,
2013-01-14 13:30:00,56.1,53.2,29.60,NW,310,5.0,9.0,90,0.00,,,-99.99,Weather View 32 v60,2013-01-14 18:30:00,
2013-01-14 13:40:00,56.1,47.9,29.61,NNW,337,12.0,18.0,74,0.00,,,-99.99,Weather View 32 v60,2013-01-14 18:40:00,
2013-01-14 13:50:00,54.5,44.5,29.62,North,351,8.0,19.0,69,0.00,,,-99.99,Weather View 32 v60,2013-01-14 18:50:00,
2013-01-14 13:55:00,54.2,44.2,29.62,North,355,10.0,19.0,69,0.00,,,-99.99,Weather View 32 v60,2013-01-14 18:55:00,
2013-01-14 14:00:00,54.0,43.3,29.63,North,359,4.0,22.0,67,0.00,,,-99.99,Weather View 32 v60,2013-01-14 19:00:00,
2013-01-14 14:05:00,53.9,42.8,29.63,NNE,29,14.0,22.0,66,0.00,,,-99.99,Weather View 32 v60,2013-01-14 19:05:00,
2013-01-14 14:10:00,53.7,42.2,29.64,North,357,11.0,22.0,65,0.00,,,-99.99,Weather View 32 v60,2013-01-14 19:10:00,
2013-01-14 14:15:00,53.4,41.1,29.64,North,359,9.0,22.0,63,0.00,,,-99.99,Weather View 32 v60,2013-01-14 19:15:00,
2013-01-14 14:20:00,53.2,40.5,29.65,NNE,18,5.0,22.0,62,0.00,,,-99.99,Weather View 32 v60,2013-01-14 19:20:00,
2013-01-14 14:25:00,52.9,39.8,29.65,NW,304,7.0,22.0,61,0.00,,,-99.99,Weather View 32 v60,2013-01-14 19:25:00,
2013-01-14 14:30:00,52.8,40.5,29.65,NNE,15,9.0,22.0,63,0.00,,,-99.99,Weather View 32 v60,2013-01-14 19:30:00,
2013-01-14 14:35:00,52.4,38.5,29.66,North,355,3.0,22.0,59,0.00,,,-99.99,Weather View 32 v60,2013-01-14 19:35:00,
2013-01-14 14:40:00,52.3,37.5,29.66,NNE,15,11.0,22.0,57,0.00,,,-99.99,Weather View 32 v60,2013-01-14 19:40:00,
2013-01-14 14:45:00,51.9,37.1,29.67,North,356,4.0,22.0,57,0.00,,,-99.99,Weather View 32 v60,2013-01-14 19:45:00,
2013-01-14 14:50:00,51.6,36.4,29.67,North,349,5.0,22.0,56,0.00,,,-99.99,Weather View 32 v60,2013-01-14 19:50:00,
2013-01-14 14:55:00,51.4,35.7,29.67,North,352,6.0,22.0,55,0.00,,,-99.99,Weather View 32 v60,2013-01-14 19:55:00,
2013-01-14 15:00:00,51.3,35.2,29.68,NNE,16,13.0,21.0,54,0.00,,,-99.99,Weather View 32 v60,2013-01-14 20:00:00,
2013-01-14 15:05:00,50.9,34.3,29.68,North,6,9.0,21.0,53,0.00,,,-99.99,Weather View 32 v60,2013-01-14 20:05:00,
2013-01-14 15:10:00,50.7,33.2,29.69,NNW,334,2.0,21.0,51,0.00,,,-99.99,Weather View 32 v60,2013-01-14 20:10:00,
2013-01-14 15:15:00,50.1,32.6,29.69,NW,313,8.0,25.0,51,0.00,,,-99.99,Weather View 32 v60,2013-01-14 20:15:00,
2013-01-14 15:20:00,49.7,31.3,29.70,North,5,8.0,25.0,49,0.00,,,-99.99,Weather View 32 v60,2013-01-14 20:20:00,
2013-01-14 15:25:00,49.2,31.8,29.70,North,11,13.0,25.0,51,0.00,,,-99.99,Weather View 32 v60,2013-01-14 20:25:00,
2013-01-14 15:30:00,48.7,30.4,29.71,NW,322,3.0,25.0,49,0.00,,,-99.99,Weather View 32 v60,2013-01-14 20:30:00,
2013-01-14 15:35:00,48.5,29.7,29.71,North,9,9.0,25.0,48,0.00,,,-99.99,Weather View 32 v60,2013-01-14 20:35:00,
2013-01-14 15:45:00,47.5,29.8,29.71,NNW,331,7.0,25.0,50,0.00,,,-99.99,Weather View 32 v60,2013-01-14 20:45:00,
2013-01-14 15:50:00,47.0,29.8,29.72,NNW,336,2.0,25.0,51,0.00,,,-99.99,Weather View 32 v60,2013-01-14 20:50:00,
2013-01-14 15:55:00,46.6,29.4,29.72,North,0,5.0,25.0,51,0.00,,,-99.99,Weather View 32 v60,2013-01-14 20:55:00,
2013-01-14 16:00:00,46.3,29.6,29.72,NW,308,9.0,25.0,52,0.00,,,-99.99,Weather View 32 v60,2013-01-14 21:00:00,
2013-01-14 16:05:00,45.8,29.6,29.72,NNW,333,4.0,25.0,53,0.00,,,-99.99,Weather View 32 v60,2013-01-14 21:05:00,
2013-01-14 16:10:00,45.5,28.9,29.72,North,0,6.0,25.0,52,0.00,,,-99.99,Weather View 32 v60,2013-01-14 21:10:00,
2013-01-14 16:15:00,45.3,28.7,29.73,NNW,329,4.0,24.0,52,0.00,,,-99.99,Weather View 32 v60,2013-01-14 21:15:00,
2013-01-14 16:20:00,45.2,29.1,29.74,North,3,1.0,24.0,53,0.00,,,-99.99,Weather View 32 v60,2013-01-14 21:20:00,
2013-01-14 16:30:00,44.7,29.5,29.75,NNW,328,0.0,24.0,55,0.00,,,-99.99,Weather View 32 v60,2013-01-14 21:30:00,
2013-01-14 16:35:00,44.4,28.8,29.75,NNE,25,0.0,20.0,54,0.00,,,-99.99,Weather View 32 v60,2013-01-14 21:35:00,
2013-01-14 16:40:00,44.3,29.1,29.76,NE,35,0.0,20.0,55,0.00,,,-99.99,Weather View 32 v60,2013-01-14 21:40:00,
2013-01-14 16:45:00,44.2,29.5,29.76,NW,325,0.0,19.0,56,0.00,,,-99.99,Weather View 32 v60,2013-01-14 21:45:00,
2013-01-14 16:50:00,43.7,29.4,29.76,NNW,327,1.0,16.0,57,0.00,,,-99.99,Weather View 32 v60,2013-01-14 21:50:00,
2013-01-14 16:55:00,43.3,29.9,29.76,North,4,2.0,16.0,59,0.00,,,-99.99,Weather View 32 v60,2013-01-14 21:55:00,
2013-01-14 17:05:00,43.0,30.5,29.77,NNE,16,6.0,16.0,61,0.00,,,-99.99,Weather View 32 v60,2013-01-14 22:05:00,
2013-01-14 17:10:00,42.6,-20.3,29.77,NNE,20,3.0,16.0,6,0.00,,,-99.99,Weather View 32 v60,2013-01-14 22:10:00,
2013-01-14 17:15:00,42.3,30.6,29.77,North,6,7.0,16.0,63,0.00,,,-99.99,Weather View 32 v60,2013-01-14 22:15:00,
2013-01-14 17:20:00,42.0,30.3,29.77,North,9,5.0,16.0,63,0.00,,,-99.99,Weather View 32 v60,2013-01-14 22:20:00,
2013-01-14 17:25:00,41.7,30.4,29.78,NNE,15,6.0,14.0,64,0.00,,,-99.99,Weather View 32 v60,2013-01-14 22:25:00,
2013-01-14 17:30:00,41.4,30.1,29.77,North,5,6.0,14.0,64,0.00,,,-99.99,Weather View 32 v60,2013-01-14 22:30:00,
2013-01-14 17:35:00,41.0,30.5,29.77,North,11,10.0,14.0,66,0.00,,,-99.99,Weather View 32 v60,2013-01-14 22:35:00,
2013-01-14 17:40:00,40.9,30.4,29.77,North,4,4.0,14.0,66,0.00,,,-99.99,Weather View 32 v60,2013-01-14 22:40:00,
2013-01-14 17:45:00,40.7,30.2,29.78,North,9,1.0,14.0,66,0.00,,,-99.99,Weather View 32 v60,2013-01-14 22:45:00,
2013-01-14 17:50:00,40.6,30.5,29.77,NNE,31,2.0,14.0,67,0.00,,,-99.99,Weather View 32 v60,2013-01-14 22:50:00,
2013-01-14 17:55:00,40.5,30.0,29.77,NNE,27,4.0,14.0,66,0.00,,,-99.99,Weather View 32 v60,2013-01-14 22:55:00,
2013-01-14 18:00:00,40.3,29.8,29.77,NNE,17,3.0,14.0,66,0.00,,,-99.99,Weather View 32 v60,2013-01-14 23:00:00,
2013-01-14 18:05:00,40.1,29.6,29.78,North,9,0.0,14.0,66,0.00,,,-99.99,Weather View 32 v60,2013-01-14 23:05:00,
2013-01-14 18:10:00,39.9,29.5,29.78,NNE,12,0.0,14.0,66,0.00,,,-99.99,Weather View 32 v60,2013-01-14 23:10:00,
2013-01-14 18:15:00,39.7,29.3,29.78,NE,35,0.0,14.0,66,0.00,,,-99.99,Weather View 32 v60,2013-01-14 23:15:00,
2013-01-14 18:20:00,39.5,29.1,29.78,NNE,16,3.0,14.0,66,0.00,,,-99.99,Weather View 32 v60,2013-01-14 23:20:00,
2013-01-14 18:25:00,39.4,28.6,29.79,North,349,1.0,14.0,65,0.00,,,-99.99,Weather View 32 v60,2013-01-14 23:25:00,
2013-01-14 18:30:00,39.2,28.4,29.79,NNW,333,1.0,14.0,65,0.00,,,-99.99,Weather View 32 v60,2013-01-14 23:30:00,
2013-01-14 18:35:00,38.9,28.1,29.78,NNW,340,0.0,14.0,65,0.00,,,-99.99,Weather View 32 v60,2013-01-14 23:35:00,
2013-01-14 18:45:00,38.8,27.7,29.79,North,0,3.0,14.0,64,0.00,,,-99.99,Weather View 32 v60,2013-01-14 23:45:00,
2013-01-14 18:50:00,38.8,27.7,29.79,NNE,26,4.0,14.0,64,0.00,,,-99.99,Weather View 32 v60,2013-01-14 23:50:00,
2013-01-14 18:55:00,38.7,27.6,29.80,ENE,58,1.0,13.0,64,0.00,,,-99.99,Weather View 32 v60,2013-01-14 23:55:00,
2013-01-14 19:00:00,38.7,27.2,29.81,NNE,14,7.0,13.0,63,0.00,,,-99.99,Weather View 32 v60,2013-01-15 00:00:00,
2013-01-14 19:05:00,38.7,27.2,29.80,North,358,2.0,13.0,63,0.00,,,-99.99,Weather View 32 v60,2013-01-15 00:05:00,
2013-01-14 19:10:00,38.3,27.2,29.80,North,356,3.0,14.0,64,0.00,,,-99.99,Weather View 32 v60,2013-01-15 00:10:00,
2013-01-14 19:15:00,38.1,27.0,29.81,North,6,7.0,14.0,64,0.00,,,-99.99,Weather View 32 v60,2013-01-15 00:15:00,
2013-01-14 19:20:00,38.0,26.9,29.81,NNE,20,2.0,14.0,64,0.00,,,-99.99,Weather View 32 v60,2013-01-15 00:20:00,
2013-01-14 19:30:00,38.1,27.0,29.84,North,0,0.0,14.0,64,0.00,,,-99.99,Weather View 32 v60,2013-01-15 00:30:00,
2013-01-14 19:35:00,38.0,26.9,29.84,North,0,3.0,14.0,64,0.00,,,-99.99,Weather View 32 v60,2013-01-15 00:35:00,
2013-01-14 19:45:00,37.8,26.7,29.84,NNW,342,1.0,14.0,64,0.00,,,-99.99,Weather View 32 v60,2013-01-15 00:45:00,
2013-01-14 19:50:00,37.7,26.6,29.84,NW,325,2.0,14.0,64,0.00,,,-99.99,Weather View 32 v60,2013-01-15 00:50:00,
2013-01-14 19:55:00,37.7,26.6,29.83,North,5,4.0,14.0,64,0.00,,,-99.99,Weather View 32 v60,2013-01-15 00:55:00,
2013-01-14 20:00:00,37.7,26.6,29.83,NNE,24,8.0,14.0,64,0.00,,,-99.99,Weather View 32 v60,2013-01-15 01:00:00,
2013-01-14 20:05:00,37.8,26.7,29.84,NNE,31,4.0,14.0,64,0.00,,,-99.99,Weather View 32 v60,2013-01-15 01:05:00,
2013-01-14 20:10:00,37.9,26.8,29.84,NE,42,0.0,14.0,64,0.00,,,-99.99,Weather View 32 v60,2013-01-15 01:10:00,
2013-01-14 20:15:00,37.7,27.0,29.83,NE,38,3.0,14.0,65,0.00,,,-99.99,Weather View 32 v60,2013-01-15 01:15:00,
2013-01-14 20:20:00,37.3,27.3,29.83,NNE,25,5.0,14.0,67,0.00,,,-99.99,Weather View 32 v60,2013-01-15 01:20:00,
2013-01-14 20:25:00,36.9,27.3,29.84,NE,41,5.0,14.0,68,0.00,,,-99.99,Weather View 32 v60,2013-01-15 01:25:00,
2013-01-14 20:30:00,37.0,27.4,29.86,NW,305,2.0,14.0,68,0.00,,,-99.99,Weather View 32 v60,2013-01-15 01:30:00,
2013-01-14 20:35:00,36.8,27.2,29.87,North,357,0.0,14.0,68,0.00,,,-99.99,Weather View 32 v60,2013-01-15 01:35:00,
2013-01-14 20:40:00,36.8,27.2,29.87,North,359,0.0,14.0,68,0.00,,,-99.99,Weather View 32 v60,2013-01-15 01:40:00,
2013-01-14 20:45:00,36.6,27.0,29.85,North,10,1.0,14.0,68,0.00,,,-99.99,Weather View 32 v60,2013-01-15 01:45:00,
2013-01-14 20:50:00,36.7,27.1,29.85,North,10,0.0,14.0,68,0.00,,,-99.99,Weather View 32 v60,2013-01-15 01:50:00,
2013-01-14 20:55:00,36.5,27.3,29.85,NNE,25,1.0,13.0,69,0.00,,,-99.99,Weather View 32 v60,2013-01-15 01:55:00,
2013-01-14 21:00:00,36.4,27.2,29.86,NE,38,0.0,11.0,69,0.00,,,-99.99,Weather View 32 v60,2013-01-15 02:00:00,
2013-01-14 21:05:00,36.4,27.5,29.86,NE,37,0.0,11.0,70,0.00,,,-99.99,Weather View 32 v60,2013-01-15 02:05:00,
2013-01-14 21:10:00,36.4,27.5,29.86,ENE,57,1.0,11.0,70,0.00,,,-99.99,Weather View 32 v60,2013-01-15 02:10:00,
2013-01-14 21:15:00,36.4,27.5,29.86,NNE,27,5.0,11.0,70,0.00,,,-99.99,Weather View 32 v60,2013-01-15 02:15:00,
2013-01-14 21:25:00,36.2,27.7,29.85,NNE,27,0.0,9.0,71,0.00,,,-99.99,Weather View 32 v60,2013-01-15 02:25:00,
2013-01-14 21:30:00,36.1,27.9,29.84,NNE,31,0.0,6.0,72,0.00,,,-99.99,Weather View 32 v60,2013-01-15 02:30:00,
2013-01-14 21:35:00,35.9,27.7,29.85,North,4,0.0,6.0,72,0.00,,,-99.99,Weather View 32 v60,2013-01-15 02:35:00,
2013-01-14 21:45:00,35.5,28.0,29.84,North,8,3.0,6.0,74,0.00,,,-99.99,Weather View 32 v60,2013-01-15 02:45:00,
2013-01-14 21:50:00,35.5,28.0,29.83,North,7,4.0,11.0,74,0.00,,,-99.99,Weather View 32 v60,2013-01-15 02:50:00,
2013-01-14 22:00:00,35.5,28.4,29.84,NNW,344,2.0,11.0,75,0.00,,,-99.99,Weather View 32 v60,2013-01-15 03:00:00,
2013-01-14 22:05:00,35.5,0.0,29.84,North,2,0.0,11.0,0,0.00,,,-99.99,Weather View 32 v60,2013-01-15 03:05:00,
2013-01-14 22:10:00,35.4,28.3,29.83,North,2,0.0,11.0,75,0.00,,,-99.99,Weather View 32 v60,2013-01-15 03:10:00,
2013-01-14 22:15:00,35.3,0.0,29.84,North,1,3.0,11.0,0,0.00,,,-99.99,Weather View 32 v60,2013-01-15 03:15:00,
2013-01-14 22:20:00,35.2,28.4,29.84,NNW,345,0.0,11.0,76,0.00,,,-99.99,Weather View 32 v60,2013-01-15 03:20:00,
2013-01-14 22:25:00,34.9,28.1,29.84,North,0,3.0,11.0,76,0.00,,,-99.99,Weather View 32 v60,2013-01-15 03:25:00,
2013-01-14 22:30:00,35.0,28.2,29.84,NNE,32,6.0,11.0,76,0.00,,,-99.99,Weather View 32 v60,2013-01-15 03:30:00,
2013-01-14 22:35:00,35.2,27.7,29.84,NNE,15,5.0,11.0,74,0.00,,,-99.99,Weather View 32 v60,2013-01-15 03:35:00,
2013-01-14 22:40:00,35.4,27.6,29.85,NNE,22,4.0,11.0,73,0.00,,,-99.99,Weather View 32 v60,2013-01-15 03:40:00,
2013-01-14 22:45:00,35.4,27.6,29.85,West,281,3.0,11.0,73,0.00,,,-99.99,Weather View 32 v60,2013-01-15 03:45:00,
2013-01-14 22:50:00,35.3,27.5,29.85,North,359,6.0,11.0,73,0.00,,,-99.99,Weather View 32 v60,2013-01-15 03:50:00,
2013-01-14 22:55:00,35.5,27.0,29.85,North,2,3.0,10.0,71,0.00,,,-99.99,Weather View 32 v60,2013-01-15 03:55:00,
2013-01-14 23:00:00,35.5,27.0,29.86,North,9,2.0,10.0,71,0.00,,,-99.99,Weather View 32 v60,2013-01-15 04:00:00,
2013-01-14 23:29:00,35.5,27.0,29.86,North,9,2.0,10.0,71,0.00,,,-99.99,Weather View 32 v60,2013-01-15 04:29:00,
2013-01-14 23:35:00,35.1,26.3,29.85,North,0,0.0,10.0,70,0.00,,,-99.99,Weather View 32 v60,2013-01-15 04:35:00,
2013-01-14 23:40:00,35.1,25.9,29.85,NNE,22,0.0,10.0,69,0.00,,,-99.99,Weather View 32 v60,2013-01-15 04:40:00,
2013-01-14 23:45:00,35.2,26.0,29.85,NNW,327,0.0,10.0,69,0.00,,,-99.99,Weather View 32 v60,2013-01-15 04:45:00,
2013-01-14 23:50:00,35.1,26.3,29.85,North,0,0.0,10.0,70,0.00,,,-99.99,Weather View 32 v60,2013-01-15 04:50:00,
2013-01-14 23:55:00,35.0,25.9,29.86,North,0,4.0,6.0,69,0.00,,,-99.99,Weather View 32 v60,2013-01-15 04:55:00,